Weather in Ijevan

Armenia     40°52′40″N   45°08′37″E
temp.,
°C
wind,
m/s
gust,
m/s
humid.,
%
clouds,
%
prec.,
mm/h
press.,
hPa
HPBL,
m
18 april, sun
sun1801:00+12wsw227544 0.1 102010
04:00+11ssw227723 0.1 102017
07:00+11sw337556 0.0 101931
10:00+16ne216440 0.0 1018549
13:00+19nne325871 0.0 1017829
16:00+20nne2253100 0.6 1015856
19:00+13n61098100 2.7 1018520
22:00+13ssw4484100 3.8 1019102
19 april, mon
mon1901:00+14wsw118299 0.1 101815
04:00+12wsw228194 0.1 101814
07:00+12ssw337493 0.0 101827
10:00+17nne2166100 0.0 1018479
13:00+19ne4262100 0.1 1017756
16:00+20ne325887 0.2 1015711
19:00+18ne1170100 0.1 101517
22:00+15sw3274100 0.1 101621
20 april, tue
tue2001:00+15ssw4473100 0.2 101651
04:00+15sw3369100 0.2 101524
07:00+14sw1169100 0.0 101411
10:00+19ne316048 0.0 1013442
13:00+21ne3259100 0.0 1012694
16:00+22e3355100 0.1 1009534
19:00+19nne22729 0.0 100959
22:00+15nw3585100 0.5 1014197
21 april, wed
wed2101:00+14ssw2273100 0.1 101412
04:00+13ssw337220 0.1 101335
07:00+13wsw22755 0.0 101318
10:00+17nne31640 0.0 1013512
13:00+20nne426191 0.0 1012757
16:00+20nne435948 0.0 1011765
19:00+17ne33730 0.0 1013140
22:00+12wnw11853 0.0 101614
22 april, thu
thu2201:00+11nw118868 0.0 101716
04:00+11n2289100 0.0 1019261
07:00+11nne118998 0.0 1020251
10:00+12nne228597 0.1 1020467
13:00+13nne328197 0.1 1020669
16:00+15ene227195 0.2 1018889
19:00+14n117999 0.2 101856
22:00+14wsw1180100 0.3 101813